Regional Weather Roundup
Issued by NWS

Home | Current Version | Previous Version | Text Only | Print | Product List | Glossary On
Versions: 1 2 3 4 5 6 7 8 9 10 11 12 13 14 15 16 17 18 19 20 21 22 23 24 25 26 27 28 29 30 31 32 33 34 35 36 37 38 39 40 41 42 43 44 45 46 47 48 49 50
000
ASUS42 KKEY 290910
RWRKEY

FLORIDA REGIONAL WEATHER ROUNDUP FOR THE FLORIDA KEYS
NATIONAL WEATHER SERVICE KEY WEST FLORIDA
400 AM EST THU JAN 29 2015

...SOUTH FLORIDA AND THE KEYS...

CITY           SKY/WX    TMP DP  RH WIND       PRES   REMARKS
FORT MYERS     CLEAR     48  43  82 NE10      30.23S WCI  43
SW REGIONAL AP CLEAR     47  42  83 N8        30.23F WCI  43
NAPLES         CLEAR     50  43  77 NE8       30.21F
MIAMI          CLOUDY    55  47  74 NW6       30.19R
WEST KENDALL   MOCLDY    54  48  80 N14       30.19R
HOMESTEAD      PTCLDY    54  48  82 NW7       30.18R
MARATHON       MOCLDY    59  53  80 N13       30.17S
BOCA CHICA NAS CLEAR     61  49  64 NE14      30.17S
KEY WEST INTL  CLEAR     61  49  64 N14G21    30.17S

...INTERNATIONAL WEATHER...

CITY           SKY/WX    TMP DP  RH WIND       PRES   REMARKS
NASSAU BAHAMAS MOCLDY    68  57  68 N12       30.14F
CANCUN MEXICO  MOCLDY    70  59  68 NE7       30.10F
COZUMEL MEXICO PTCLDY    64  57  77 NE12      30.10F

ADJACENT COASTAL WATERS...

STATION/POSITION TIME  SKY/WX   TEMP    WIND        PRES    WAVE
                                AIR SEA DIR/SP/G            HT/PER
                 (UTC)          (F)     (DEG/KT/KT) (MB)    (FT/S)
PULASKI SHOAL LI NOT AVBL
SAND KEY         NOT AVBL
SOMBRERO KEY     NOT AVBL
LONG KEY         NOT AVBL
MOLASSES REEF    NOT AVBL
FOWEY ROCKS      NOT AVBL
Buoy 42080       NOT AVBL

$$



USA.gov is the U.S. government's official web portal to all federal, state and local government web resources and services.